Location: Calvatone
(45.1167°N, 10.4333°E)
Time: 15:10:41
(UTC+00:00)

IRIDIUM 103 - Pass Details

Date: 28 January 2023
Orbit: 776 x 779 km, 86.4° (Epoch: 29 March)

Event Time Altitude Azimuth Distance (km) Brightness Sun altitude
Rises 18:49:08 0° 355° (N) 3,273 7.6 -26.4°
Reaches altitude 10° 18:51:29 10° 355° (N) 2,341 6.9 -26.8°
Maximum altitude 18:56:44 81° 269° (W) 794 4.3 -27.7°
Enters shadow 18:57:20 69° 203° (SSW) 834 4.4 -27.8°
Exits shadow 19:02:11 - 182° (S) 2,419 6.9 -28.7°
Sets 19:04:16 0° 182° (S) 3,245 7.5 -29.0°
